This is the latest recevied weather packets stored in our database for station/object EB1TK-13. If no packets are shown the sender has not sent any weather packets the latest 1 day(s).
| Time | Temp. | Humidity | Pressure | Rain* | Wind** | Luminosity | Snow |
|---|---|---|---|---|---|---|---|
| 1777991535 | 15.56° C | 83% | 1014.4 hPa | 0 mm | 4.92 m/s, 262° | - | - |
| 1777990935 | 15.56° C | 83% | 1014.5 hPa | 0 mm | 5.81 m/s, 267° | - | - |
| 1777990335 | 15.56° C | 83% | 1014.4 hPa | 0 mm | 2.24 m/s, 284° | - | - |
| 1777989736 | 15.56° C | 82% | 1014.3 hPa | 0 mm | 4.02 m/s, 284° | - | - |
| 1777989136 | 15.56° C | 81% | 1014.1 hPa | 0 mm | 6.26 m/s, 275° | - | - |
| 1777988536 | 16.11° C | 81% | 1014.2 hPa | 0 mm | 4.92 m/s, 268° | - | - |
| 1777987937 | 15.56° C | 82% | 1014.1 hPa | 0 mm | 4.02 m/s, 279° | - | - |
| 1777987335 | 15.56° C | 80% | 1014.1 hPa | 0 mm | 3.13 m/s, 288° | - | - |
| 1777986735 | 15.56° C | 79% | 1014.2 hPa | 0 mm | 4.47 m/s, 265° | - | - |
| 1777986136 | 15.56° C | 80% | 1014.1 hPa | 0 mm | 4.47 m/s, 288° | - | - |
| 1777985536 | 15.56° C | 80% | 1014.1 hPa | 0 mm | 5.81 m/s, 273° | - | - |
| 1777984936 | 15° C | 81% | 1014 hPa | 0 mm | 5.36 m/s, 266° | - | - |
| 1777984337 | 15° C | 81% | 1014.1 hPa | 0.25 mm | 3.13 m/s, 278° | - | - |
| 1777983737 | 15° C | 80% | 1014.1 hPa | 0.25 mm | 6.26 m/s, 268° | - | - |
| 1777983135 | 15° C | 80% | 1014.1 hPa | 0.25 mm | 5.81 m/s, 278° | - | - |
| 1777982535 | 14.44° C | 80% | 1014.1 hPa | 0.25 mm | 6.71 m/s, 271° | - | - |
| 1777981936 | 14.44° C | 81% | 1014.1 hPa | 0.25 mm | 7.6 m/s, 262° | - | - |
| 1777981336 | 13.89° C | 83% | 1014.1 hPa | 0.25 mm | 5.81 m/s, 270° | - | - |
| 1777980736 | 14.44° C | 82% | 1014 hPa | 0 mm | 8.05 m/s, 271° | - | - |
| 1777980137 | 14.44° C | 82% | 1014.1 hPa | 0 mm | 7.6 m/s, 271° | - | - |
| 1777979535 | 14.44° C | 82% | 1014.1 hPa | 0 mm | 5.36 m/s, 264° | - | - |
| 1777978935 | 14.44° C | 80% | 1014.2 hPa | 0 mm | 6.26 m/s, 262° | - | - |
| 1777978336 | 14.44° C | 80% | 1014.1 hPa | 0 mm | 5.81 m/s, 262° | - | - |
| 1777977736 | 13.89° C | 81% | 1014.3 hPa | 0 mm | 6.26 m/s, 268° | - | - |
| 1777977136 | 13.89° C | 81% | 1014.3 hPa | 0 mm | 5.36 m/s, 257° | - | - |
* Rain latest hour (hover to see other rain measurements)
** Current wind speed in m/s (hover to see current wind gust speed)